This is the latest recevied weather packets stored in our database for station/object CR7BQX-13. If no packets are shown the sender has not sent any weather packets the latest 10 day(s).
| Time | Temp. | Humidity | Pressure | Rain* | Wind** | Luminosity | Snow |
|---|---|---|---|---|---|---|---|
| 1777380837 | 32.22° C | 50% | 1006.4 hPa | - | - | - | - |
| 1777379031 | 35° C | 48% | 1006.7 hPa | - | - | - | - |
| 1777377225 | 35° C | 50% | 1007 hPa | - | - | - | - |
| 1777317028 | 23.89° C | 49% | 1009.7 hPa | - | - | - | - |
| 1777315223 | 26.11° C | 48% | 1009.6 hPa | - | - | - | - |
| 1777313417 | 30.56° C | 44% | 1009.3 hPa | - | - | - | - |
| 1777311679 | 30° C | 45% | 1009.4 hPa | - | - | - | - |
| 1777309874 | 30.56° C | 47% | 1009.1 hPa | - | - | - | - |
| 1777308068 | 35.56° C | 43% | 1008.9 hPa | - | - | - | - |
| 1777306262 | 36.67° C | 43% | 1009 hPa | - | - | - | - |
| 1777304456 | 36.11° C | 43% | 1009.2 hPa | - | - | - | - |
| 1777302651 | 34.44° C | 45% | 1009.3 hPa | - | - | - | - |
| 1777300845 | 40.56° C | 41% | 1009.5 hPa | - | - | - | - |
| 1777299039 | 44.44° C | 36% | 1009.7 hPa | - | - | - | - |
| 1777297234 | 46.11° C | 36% | 1010.1 hPa | - | - | - | - |
| 1777295428 | 44.44° C | 40% | 1010.5 hPa | - | - | - | - |
| 1777293622 | 44.44° C | 41% | 1010.9 hPa | - | - | - | - |
| 1777291817 | 43.33° C | 44% | 1011.4 hPa | - | - | - | - |
| 1777206457 | 41.11° C | 38% | 1014.5 hPa | - | - | - | - |
| 1777204651 | 37.78° C | 43% | 1015 hPa | - | - | - | - |
| 1777132349 | 34.44° C | 40% | 1013 hPa | - | - | - | - |
| 1777130543 | 33.33° C | 42% | 1012.6 hPa | - | - | - | - |
| 1777128738 | 33.33° C | 42% | 1012.9 hPa | - | - | - | - |
* Rain since midnight (hover to see other rain measurements)
** Current wind speed in m/s (hover to see current wind gust speed)